Weather History for Morganton, NC

Change the Weather History Date:

Saturday, July 5, 2014

  Actual Average (KHKY) Record (KHKY)
Temperature  
Mean Temperature 64 °F -  
Max Temperature 81 °F 85 °F 99 °F (1993)
Min Temperature 48 °F 65 °F 57 °F (1967)
Growing Degree Days 14 (Base 50)    
Moisture  
Dew Point 53 °F    
Average Humidity 68    
Maximum Humidity 100    
Minimum Humidity 33    
Precipitation  
Precipitation 0.00 in - - ()
Sea Level Pressure  
Sea Level Pressure 30.31 in    
Wind  
Wind Speed 1 mph (East)    
Max Wind Speed 7 mph    
Max Gust Speed -    
Visibility 10 miles    
Events      
Averages and records for this station are not official NWS values.
T = Trace of Precipitation, MM = Missing Value Source: NWS Daily Summary

Daily Weather History Graph

Daily Weather History Graph

Search for Another Location

Airport:

Trip Planner

Search our weather history database for the weather conditions in past years. The results will help you decide how hot, cold, wet, or windy it might be!

Date:

Astronomy

Jul. 05, 2014 Rise Set
Actual Time 6:15 AM EDT 8:46 PM EDT
Civil Twilight 5:45 AM EDT 9:16 PM EDT
Nautical Twilight 5:08 AM EDT 9:52 PM EDT
Astronomical Twilight 4:27 AM EDT 10:33 PM EDT
Moon 1:52 PM EDT (7/5) 12:52 AM EDT (7/5)
Length of Visible Light 15h 30m
Length of Day
14h 30m
First Quarter, 52% of the Moon is Illuminated
Jul 5
First Quarter
Jul 12
Full
Jul 18
Last Quarter
Jul 26
New
Aug 3
First Quarter

Hourly Weather History & Observations

Time (EDT) Temp. Heat Index Dew Point Humidity Pressure Visibility Wind Dir Wind Speed Gust Speed Precip Events Conditions
12:15 AM 56.5 °F - 54.9 °F 94% 30.29 in 10.0 mi Calm Calm - N/A   Clear
12:35 AM 55.8 °F - 54.0 °F 94% 30.29 in 10.0 mi Calm Calm - N/A   Clear
12:55 AM 55.9 °F - 54.7 °F 96% 30.29 in 10.0 mi Calm Calm - N/A   Clear
1:15 AM 54.5 °F - 53.4 °F 96% 30.30 in 10.0 mi Calm Calm - N/A   Clear
1:35 AM 54.1 °F - 53.2 °F 97% 30.30 in 10.0 mi Calm Calm - N/A   Clear
1:55 AM 53.6 °F - 52.7 °F 97% 30.30 in 10.0 mi Calm Calm - N/A   Clear
2:15 AM 53.1 °F - 52.5 °F 98% 30.30 in 10.0 mi Calm Calm - N/A   Clear
2:35 AM 52.0 °F - 51.6 °F 99% 30.30 in 7.0 mi Calm Calm - N/A   Clear
2:55 AM 52.9 °F - 52.7 °F 99% 30.30 in 10.0 mi Calm Calm - N/A   Clear
3:15 AM 52.2 °F - 51.8 °F 99% 30.30 in 10.0 mi Calm Calm - N/A   Clear
3:35 AM 52.0 °F - 52.0 °F 100% 30.30 in 10.0 mi NNW 3.5 mph - N/A   Clear
3:55 AM 51.3 °F - 51.1 °F 99% 30.30 in 7.0 mi NNW 3.5 mph - N/A   Clear
4:15 AM 54.1 °F - 54.1 °F 100% 30.30 in 10.0 mi NW 3.5 mph - N/A   Clear
4:35 AM 51.4 °F - 50.2 °F 95% 30.31 in 7.0 mi Calm Calm - N/A   Clear
4:55 AM 50.5 °F - 50.4 °F 99% 30.31 in 7.0 mi Calm Calm - N/A   Clear
5:15 AM 50.0 °F - 49.8 °F 99% 30.31 in 5.0 mi Calm Calm - N/A   Clear
5:35 AM 50.0 °F - 50.0 °F 100% 30.32 in 7.0 mi Calm Calm - N/A   Clear
5:55 AM 48.9 °F - 48.9 °F 100% 30.33 in 7.0 mi Calm Calm - N/A   Clear
6:35 AM 49.1 °F - 49.1 °F 100% 30.34 in 7.0 mi Calm Calm - N/A   Clear
6:55 AM 50.5 °F - 50.5 °F 100% 30.34 in 4.0 mi Calm Calm - N/A   Clear
7:15 AM 53.1 °F - 53.1 °F 100% 30.35 in 5.0 mi Calm Calm - N/A   Clear
7:35 AM 58.1 °F - 57.7 °F 99% 30.36 in 10.0 mi Calm Calm - N/A   Clear
7:55 AM 60.1 °F - 55.8 °F 86% 30.36 in 10.0 mi Calm Calm - N/A   Clear
8:15 AM 61.0 °F - 54.5 °F 79% 30.37 in 10.0 mi Calm Calm - N/A   Clear
8:35 AM 63.0 °F - 54.0 °F 72% 30.37 in 10.0 mi WNW 3.5 mph - N/A   Clear
8:55 AM 64.8 °F - 54.0 °F 68% 30.38 in 10.0 mi Calm Calm - N/A   Clear
9:15 AM 66.4 °F - 53.6 °F 63% 30.38 in 10.0 mi Calm Calm - N/A   Clear
9:35 AM 68.4 °F - 54.7 °F 62% 30.37 in 10.0 mi NNW 3.5 mph - N/A   Clear
9:55 AM 70.3 °F - 53.6 °F 55% 30.37 in 10.0 mi North 4.6 mph - N/A   Clear
10:15 AM 70.9 °F - 52.5 °F 52% 30.37 in 10.0 mi Calm Calm - N/A   Clear
10:35 AM 71.6 °F - 51.6 °F 49% 30.37 in 10.0 mi ESE 4.6 mph - N/A   Clear
10:55 AM 74.1 °F - 50.0 °F 43% 30.37 in 10.0 mi East 3.5 mph - N/A   Clear
11:15 AM 74.5 °F - 48.7 °F 40% 30.36 in 10.0 mi NE 3.5 mph - N/A   Clear
11:35 AM 74.3 °F - 48.9 °F 41% 30.36 in 10.0 mi SE 4.6 mph - N/A   Clear
11:55 AM 76.1 °F - 50.2 °F 40% 30.36 in 10.0 mi SE 5.8 mph - N/A   Clear
12:15 PM 76.5 °F - 50.2 °F 40% 30.34 in 10.0 mi ESE 3.5 mph - N/A   Clear
12:35 PM 76.1 °F - 49.1 °F 39% 30.33 in 10.0 mi Calm Calm - N/A   Clear
12:55 PM 77.5 °F - 51.4 °F 40% 30.34 in 10.0 mi ESE 6.9 mph - N/A   Clear
1:15 PM 77.2 °F - 49.6 °F 38% 30.34 in 10.0 mi Calm Calm - N/A   Scattered Clouds
1:35 PM 78.1 °F - 50.2 °F 38% 30.33 in 10.0 mi NNW 4.6 mph - N/A   Scattered Clouds
1:55 PM 77.5 °F - 49.8 °F 38% 30.33 in 10.0 mi Calm Calm - N/A   Mostly Cloudy
2:15 PM 79.2 °F - 51.1 °F 37% 30.33 in 10.0 mi SSE 3.5 mph - N/A   Mostly Cloudy
2:35 PM 79.7 °F - 50.9 °F 37% 30.33 in 10.0 mi Calm Calm - N/A   Scattered Clouds
2:55 PM 79.3 °F - 49.5 °F 35% 30.33 in 10.0 mi WSW 5.8 mph - N/A   Clear
3:15 PM 79.2 °F - 49.1 °F 35% 30.32 in 10.0 mi Calm Calm - N/A   Clear
3:35 PM 80.1 °F - 48.7 °F 33% 30.31 in 10.0 mi South 3.5 mph - N/A   Clear
3:55 PM 79.9 °F - 49.1 °F 34% 30.30 in 10.0 mi SW 4.6 mph - N/A   Clear
4:15 PM 80.6 °F - 49.5 °F 34% 30.30 in 10.0 mi West 4.6 mph - N/A   Clear
4:35 PM 80.8 °F - 50.0 °F 34% 30.29 in 10.0 mi Calm Calm - N/A   Clear
4:55 PM 80.4 °F - 49.5 °F 34% 30.29 in 10.0 mi Calm Calm - N/A   Clear
5:15 PM 81.0 °F - 49.5 °F 33% 30.28 in 10.0 mi SSW 3.5 mph - N/A   Clear
5:35 PM 80.6 °F - 51.1 °F 36% 30.27 in 10.0 mi South 3.5 mph - N/A   Clear
5:55 PM 80.6 °F - 50.0 °F 34% 30.28 in 10.0 mi Calm Calm - N/A   Clear
6:15 PM 81.1 °F - 50.4 °F 34% 30.27 in 10.0 mi Calm Calm - N/A   Clear
6:35 PM 81.1 °F - 51.3 °F 35% 30.27 in 10.0 mi Calm Calm - N/A   Clear
6:55 PM 80.8 °F - 52.5 °F 37% 30.27 in 10.0 mi Calm Calm - N/A   Clear
7:15 PM 81.0 °F 80.5 °F 53.6 °F 39% 30.27 in 10.0 mi Calm Calm - N/A   Clear
7:35 PM 79.9 °F - 53.2 °F 40% 30.28 in 10.0 mi Calm Calm - N/A   Clear
7:55 PM 77.4 °F - 63.0 °F 61% 30.27 in 10.0 mi Calm Calm - N/A   Clear
8:15 PM 74.8 °F - 61.2 °F 62% 30.27 in 10.0 mi Calm Calm - N/A   Clear
8:35 PM 69.8 °F - 64.8 °F 84% 30.27 in 10.0 mi Calm Calm - N/A   Clear
8:55 PM 66.4 °F - 62.6 °F 88% 30.27 in 10.0 mi Calm Calm - N/A   Clear
9:15 PM 64.6 °F - 61.5 °F 90% 30.27 in - Calm Calm - N/A   Unknown
9:40 PM - - - N/A% 30.27 in - Calm Calm - N/A   Unknown
9:55 PM 61.9 °F - 58.8 °F 90% 30.27 in - Calm Calm - N/A   Unknown
10:10 PM 60.4 °F - 58.3 °F 93% 30.28 in 10.0 mi Calm Calm - N/A   Clear
10:34 PM 59.0 °F - 57.2 °F 94% 30.27 in 10.0 mi East 3.5 mph - N/A   Clear
10:35 PM 59.4 °F - 57.6 °F 94% 30.27 in 10.0 mi ENE 3.5 mph - N/A   Clear
10:55 PM 61.0 °F - 58.1 °F 90% 30.28 in 10.0 mi Calm Calm - N/A   Clear
11:15 PM 59.4 °F - 57.6 °F 94% 30.28 in 10.0 mi Calm Calm - N/A   Clear
11:35 PM 60.4 °F - 58.3 °F 93% 30.27 in 10.0 mi North 3.5 mph - N/A   Clear